Cape Girardeau, MO

2:05 AM CST on November 21, 2019 (GMT -0600)
Cape Girardeau Regional

Weather History for KCGI - October, 2019

Change the Weather History Date:

Sunday, October 13, 2019

  Actual Average Record
Temperature  
Mean Temperature 53 °F 59 °F  
Max Temperature 70 °F 71 °F 92 °F (1989)
Min Temperature 35 °F 46 °F 29 °F (2006)
Degree Days  
Heating Degree Days 12 7  
Month to date heating degree days 55 79  
Since 1 July heating degree days 55 128  
Cooling Degree Days 0 1  
Month to date cooling degree days 51 20  
Year to date cooling degree days 1775 1442  
Growing Degree Days 4 (Base 50)    
Moisture  
Dew Point 37 °F    
Average Humidity 60    
Maximum Humidity 92    
Minimum Humidity 28    
Precipitation  
Precipitation 0.00 in 0.12 in 1.80 in (2001)
Month to date precipitation 1.75 1.51  
Year to date precipitation 49.42 35.84  
Sea Level Pressure  
Sea Level Pressure 30.02 in    
Wind  
Wind Speed 5 mph (SW)    
Max Wind Speed 14 mph    
Max Gust Speed 20 mph    
Visibility 10 miles    
Events      
T = Trace of Precipitation, MM = Missing Value Source: NWS Daily Summary

Daily Weather History Graph

Daily Weather History Graph

Search for Another Location

Airport or City:

Astronomy

Oct. 13, 2019 Rise Set
Actual Time 7:04 AM CDT 6:24 PM CDT
Civil Twilight 6:37 AM CDT 6:50 PM CDT
Nautical Twilight 6:07 AM CDT 7:20 PM CDT
Astronomical Twilight 5:37 AM CDT 7:50 PM CDT
Moon 6:45 PM CDT (10/13) 6:40 AM CDT (10/13)
Length of Visible Light 12h 12m
Length of Day
11h 20m
Full, 100% of the Moon is Illuminated
Oct 13
Full
Oct 13
Full
Oct 21
Last Quarter
Oct 27
New
Nov 4
First Quarter

Hourly Weather History & Observations

Time (CDT) Temp. Windchill Dew Point Humidity Pressure Visibility Wind Dir Wind Speed Gust Speed Precip Events Conditions
12:53 AM 37.9 °F 35.5 °F 34.0 °F 86% 30.05 in 10.0 mi WNW 3.5 mph - N/A   Clear
1:53 AM 39.0 °F 35.7 °F 35.1 °F 86% 30.04 in 10.0 mi ESE 4.6 mph - N/A   Clear
2:53 AM 39.9 °F - 34.0 °F 79% 30.03 in 10.0 mi Calm Calm - N/A   Clear
3:53 AM 39.0 °F - 34.0 °F 82% 30.03 in 10.0 mi Calm Calm - N/A   Clear
5:53 AM 37.0 °F 34.5 °F 34.0 °F 89% 30.05 in 10.0 mi ESE 3.5 mph - N/A   Clear
6:53 AM 37.0 °F 33.3 °F 34.0 °F 89% 30.04 in 10.0 mi SSE 4.6 mph - N/A   Clear
7:53 AM 39.0 °F - 36.0 °F 89% 30.06 in 10.0 mi Calm Calm - N/A   Clear
8:53 AM 48.0 °F - 39.9 °F 74% 30.06 in 10.0 mi WSW 4.6 mph - N/A   Clear
9:53 AM 54.0 °F - 37.9 °F 55% 30.06 in 10.0 mi WSW 8.1 mph - N/A   Clear
10:53 AM 57.9 °F - 39.0 °F 49% 30.05 in 10.0 mi SW 8.1 mph - N/A   Clear
11:53 AM 63.0 °F - 37.9 °F 40% 30.04 in 10.0 mi WSW 10.4 mph - N/A   Clear
12:53 PM 66.0 °F - 37.9 °F 36% 30.02 in 10.0 mi SW 9.2 mph - N/A   Clear
1:53 PM 68.0 °F - 37.0 °F 32% 29.99 in 10.0 mi SW 10.4 mph - N/A   Clear
2:53 PM 69.1 °F - 37.9 °F 32% 29.97 in 10.0 mi SSW 11.5 mph - N/A   Clear
3:53 PM 70.0 °F - 39.0 °F 32% 29.96 in 10.0 mi SSW 9.2 mph 18.4 mph N/A   Clear
4:53 PM 69.1 °F - 35.1 °F 29% 29.96 in 10.0 mi SW 9.2 mph - N/A   Clear
5:53 PM 64.9 °F - 37.9 °F 37% 29.96 in 10.0 mi SSW 6.9 mph - N/A   Clear
6:53 PM 59.0 °F - 37.9 °F 46% 29.97 in 10.0 mi SSW 6.9 mph - N/A   Clear
7:53 PM 57.0 °F - 37.9 °F 49% 30.00 in 10.0 mi SSW 6.9 mph - N/A   Clear
8:53 PM 55.0 °F - 37.9 °F 53% 30.00 in 10.0 mi SW 3.5 mph - N/A   Clear
9:53 PM 54.0 °F - 39.0 °F 57% 30.02 in 10.0 mi WSW 3.5 mph - N/A   Clear
10:53 PM 48.9 °F - 39.0 °F 69% 30.02 in 10.0 mi Calm Calm - N/A   Clear
11:53 PM 48.9 °F - 41.0 °F 74% 30.03 in 10.0 mi WNW 4.6 mph - N/A   Clear